ASRTU-1 (AO-123)

Last updated on Sun Aug 09 2026 00:03:16 GMT+0000 (Coordinated Universal Time)

1 61781U 24199AY 26220.60694591 .00004293 00000+0 12288-3 0 9991 2 61781 97.2931 88.8106 0015281 117.1817 243.0987 15.36375143141973
UTC large
Height (km)
Speed (km/s)
/
Latitude / Longitude
Inclination (degrees)
Orbital Period (minutes)
Azimuth
Elevation
Range (km)
Doppler Factor

Next 0 passes for location: London (51.5072 / 0.1276)

No passes found over London.
ASRTU-1 (AO-123)